W2CS Weather Reports


Display with metric or nautical units.
time (UTC)temp
F
wind
direction
speed
MPH
gust
MPH
rain 1hr
in
rain 24hr
in
rain mn
in
humidity
%
barometer
mb
20260509144556 59 0 0.0 2.0 0.00 0.00 0.00 83 1014.5
20260509144041 58 0 0.0 2.0 0.00 0.00 0.00 84 1014.5
20260509143539 58 0 0.0 2.0 0.00 0.00 0.00 84 1014.7
20260509143053 57 0 0.0 2.0 0.00 0.00 0.00 85 1014.6
20260509142539 57 0 0.0 3.0 0.00 0.00 0.00 87 1014.7
20260509142040 56 194 0.0 3.0 0.00 0.00 0.00 85 1014.4
20260509141549 56 0 0.0 2.0 0.00 0.00 0.00 86 1014.4
20260509141041 56 0 0.0 3.0 0.00 0.00 0.00 88 1014.4
20260509140539 55 0 0.0 3.0 0.00 0.00 0.00 88 1014.4
20260509140055 54 0 1.0 3.0 0.00 0.00 0.00 87 1014.4
20260509135541 54 278 0.0 3.0 0.00 0.00 0.00 88 1014.4
20260509135042 53 0 0.0 3.0 0.00 0.00 0.00 89 1014.5
20260509134549 53 0 0.0 2.0 0.00 0.00 0.00 89 1014.6
20260509134038 53 0 0.0 2.0 0.00 0.00 0.00 90 1014.7
20260509133539 52 238 0.0 2.0 0.00 0.00 0.00 90 1014.8
20260509133059 52 0 0.0 2.0 0.00 0.00 0.00 91 1014.9
20260509132539 52 0 0.0 3.0 0.00 0.00 0.00 91 1015.0
20260509132039 52 0 0.0 3.0 0.00 0.00 0.00 91 1014.7
20260509131551 52 149 0.0 4.0 0.00 0.00 0.00 91 1014.9
20260509131039 52 176 0.0 4.0 0.00 0.00 0.00 91 1015.1
20260509130539 52 0 0.0 4.0 0.00 0.00 0.00 91 1015.3
20260509130055 52 0 0.0 2.0 0.00 0.00 0.00 91 1015.2
20260509125538 52 0 0.0 3.0 0.00 0.00 0.00 91 1015.0
20260509125038 52 0 0.0 4.0 0.00 0.00 0.00 91 1015.0
20260509124556 52 0 0.0 4.0 0.00 0.00 0.00 92 1015.2
20260509124039 52 56 1.0 4.0 0.00 0.00 0.00 92 1015.3
20260509123539 52 181 0.0 4.0 0.00 0.00 0.00 92 1015.2
20260509123054 52 0 0.0 2.0 0.00 0.00 0.00 93 1015.4
20260509122538 53 0 0.0 2.0 0.00 0.00 0.00 94 1015.4
20260509122042 53 0 0.0 3.0 0.00 0.00 0.00 94 1015.3
20260509121557 52 0 0.0 3.0 0.00 0.00 0.00 94 1015.2
20260509121039 51 0 1.0 3.0 0.00 0.00 0.00 94 1015.2
20260509120539 51 39 0.0 2.0 0.00 0.00 0.00 94 1015.0
20260509120051 50 128 0.0 2.0 0.00 0.00 0.00 94 1015.0
20260509115538 50 0 0.0 3.0 0.00 0.00 0.00 94 1014.9
20260509115039 50 0 0.0 3.0 0.00 0.00 0.00 94 1015.0
20260509114600 50 157 0.0 3.0 0.00 0.00 0.00 94 1014.9
20260509114040 49 0 0.0 2.0 0.00 0.00 0.00 94 1014.8
20260509113540 49 0 0.0 1.0 0.00 0.00 0.00 94 1015.0
20260509113048 48 0 0.0 1.0 0.00 0.00 0.00 94 1015.0
20260509112539 48 0 0.0 0.0 0.00 0.00 0.00 94 1015.1
20260509112043 48 0 0.0 0.0 0.00 0.00 0.00 94 1015.1
20260509111551 48 0 0.0 0.0 0.00 0.00 0.00 94 1015.1
20260509111043 47 0 0.0 0.0 0.00 0.00 0.00 94 1015.0
20260509110538 47 0 0.0 0.0 0.00 0.00 0.00 94 1015.1
20260509110050 47 0 0.0 2.0 0.00 0.00 0.00 94 1015.1
20260509105539 47 0 0.0 2.0 0.00 0.00 0.00 94 1015.2
20260509105039 47 0 0.0 2.0 0.00 0.00 0.00 94 1015.3
20260509104550 47 0 1.0 2.0 0.00 0.00 0.00 94 1015.3
20260509104040 47 0 0.0 2.0 0.00 0.00 0.00 94 1015.3
20260509103539 47 107 1.0 2.0 0.00 0.00 0.00 94 1015.1
20260509103048 46 0 0.0 2.0 0.00 0.00 0.00 94 1015.2
20260509102538 46 0 0.0 0.0 0.00 0.00 0.00 94 1015.3
20260509102039 46 0 0.0 0.0 0.00 0.00 0.00 94 1015.3
20260509101548 46 0 0.0 0.0 0.00 0.00 0.00 94 1015.2
20260509101039 46 0 0.0 0.0 0.00 0.00 0.00 94 1015.2
20260509100539 46 0 0.0 0.0 0.00 0.00 0.00 94 1015.2
20260509100048 46 0 0.0 0.0 0.00 0.00 0.00 93 1015.2
20260509095537 46 0 0.0 0.0 0.00 0.00 0.00 93 1015.1
20260509095039 45 0 0.0 0.0 0.00 0.00 0.00 94 1015.0
20260509094552 46 0 0.0 0.0 0.00 0.00 0.00 94 1014.8
20260509094038 45 0 0.0 0.0 0.00 0.00 0.00 93 1014.6
20260509093540 45 0 0.0 2.0 0.00 0.00 0.00 93 1014.6
20260509093053 45 0 0.0 2.0 0.00 0.00 0.00 93 1014.5
20260509092539 45 0 0.0 0.0 0.00 0.00 0.00 93 1014.5
20260509092042 45 0 0.0 0.0 0.00 0.00 0.00 93 1014.6
20260509091558 45 0 0.0 1.0 0.00 0.00 0.00 93 1014.4
20260509091039 44 0 0.0 1.0 0.00 0.00 0.00 93 1014.4
20260509090540 44 0 0.0 1.0 0.00 0.00 0.00 93 1014.3
20260509090100 44 0 0.0 0.0 0.00 0.00 0.00 93 1014.4
20260509085542 44 0 0.0 0.0 0.00 0.00 0.00 93 1014.1
20260509085039 44 0 0.0 0.0 0.00 0.00 0.00 93 1014.1
20260509084556 44 0 0.0 0.0 0.00 0.00 0.00 93 1014.0
20260509084039 44 0 0.0 0.0 0.00 0.00 0.00 93 1013.8
20260509083540 44 0 0.0 0.0 0.00 0.00 0.00 93 1013.9
20260509083056 44 0 0.0 0.0 0.00 0.00 0.00 93 1013.9
20260509082538 44 0 0.0 0.0 0.00 0.00 0.00 93 1013.8
20260509082041 44 0 0.0 0.0 0.00 0.00 0.00 93 1013.8
20260509081553 44 0 0.0 0.0 0.00 0.00 0.00 93 1013.9
20260509081040 44 0 0.0 0.0 0.00 0.00 0.00 93 1014.0
20260509080537 44 0 0.0 0.0 0.00 0.00 0.00 93 1013.9
20260509080106 44 0 0.0 0.0 0.00 0.00 0.00 93 1013.8
20260509075539 44 0 0.0 0.0 0.00 0.00 0.00 93 1013.9
20260509075043 44 0 0.0 0.0 0.00 0.00 0.00 93 1014.1
20260509074550 45 0 0.0 0.0 0.00 0.00 0.00 93 1014.0
20260509074043 45 0 0.0 0.0 0.00 0.00 0.00 93 1014.1
20260509073539 45 0 0.0 0.0 0.00 0.00 0.00 93 1014.2
20260509073106 45 0 0.0 0.0 0.00 0.00 0.00 93 1014.2
20260509072539 45 0 0.0 0.0 0.00 0.00 0.00 93 1014.3
20260509072038 45 0 0.0 0.0 0.00 0.00 0.00 93 1014.4
20260509071553 45 0 0.0 0.0 0.00 0.00 0.00 93 1014.4
20260509071039 45 0 0.0 0.0 0.00 0.00 0.00 93 1014.3
20260509070539 45 0 0.0 0.0 0.00 0.00 0.00 93 1014.3
20260509070058 45 0 0.0 0.0 0.00 0.00 0.00 93 1014.3
20260509065538 45 0 0.0 0.0 0.00 0.00 0.00 93 1014.5
20260509065039 45 0 0.0 0.0 0.00 0.00 0.00 93 1014.5
20260509064556 45 0 0.0 0.0 0.00 0.00 0.00 93 1014.5
20260509064039 45 0 0.0 0.0 0.00 0.00 0.00 93 1014.6
20260509063539 44 0 0.0 1.0 0.00 0.00 0.00 93 1014.5
20260509063055 44 0 0.0 1.0 0.00 0.00 0.00 93 1014.6
20260509062539 44 0 0.0 0.0 0.00 0.00 0.00 93 1014.7
20260509062038 44 0 0.0 0.0 0.00 0.00 0.00 93 1014.9
20260509061548 44 0 0.0 0.0 0.00 0.00 0.00 93 1014.8
20260509061038 44 0 0.0 0.0 0.00 0.00 0.00 93 1014.6
20260509060539 43 0 0.0 0.0 0.00 0.00 0.00 93 1014.7
20260509060055 43 0 0.0 0.0 0.00 0.00 0.00 93 1014.8
20260509055539 43 0 0.0 0.0 0.00 0.00 0.00 93 1014.6
20260509055038 43 0 0.0 0.0 0.00 0.00 0.00 93 1014.6
20260509054554 43 0 0.0 0.0 0.00 0.00 0.00 93 1014.6
20260509054038 43 0 0.0 0.0 0.00 0.00 0.00 92 1014.6
20260509053539 43 0 0.0 0.0 0.00 0.00 0.00 92 1014.6
20260509053048 43 0 0.0 0.0 0.00 0.00 0.00 92 1014.5
20260509052538 43 0 0.0 0.0 0.00 0.00 0.00 93 1014.5
20260509052039 43 0 0.0 0.0 0.00 0.00 0.00 93 1014.5
20260509051551 43 0 0.0 0.0 0.00 0.00 0.00 93 1014.5
20260509051039 43 0 0.0 1.0 0.00 0.00 0.00 93 1014.4
20260509050539 42 0 0.0 2.0 0.00 0.00 0.00 93 1014.5
20260509050058 42 107 0.0 2.0 0.00 0.00 0.00 93 1014.5
20260509045539 42 107 1.0 2.0 0.00 0.00 0.00 92 1014.4
20260509045039 41 107 1.0 2.0 0.00 0.00 0.00 92 1014.5
20260509044550 41 108 0.0 2.0 0.00 0.00 0.00 92 1014.6
20260509044039 41 0 0.0 2.0 0.00 0.00 0.00 92 1014.6
20260509043538 41 0 0.0 2.0 0.00 0.00 0.00 92 1014.5
20260509043050 41 107 0.0 1.0 0.00 0.00 0.00 92 1014.5
20260509042538 41 107 0.0 2.0 0.00 0.00 0.00 91 1014.3
20260509042039 41 107 0.0 2.0 0.00 0.00 0.00 92 1014.3
20260509041552 41 107 1.0 2.0 0.00 0.00 0.00 92 1014.2
20260509041039 41 107 1.0 2.0 0.00 0.00 0.00 91 1014.1
20260509040541 41 107 0.0 2.0 0.00 0.00 0.00 91 1014.3
20260509040049 41 0 0.0 2.0 0.00 0.00 0.00 91 1014.3
20260509035539 41 107 1.0 2.0 0.00 0.00 0.00 91 1014.2
20260509035039 41 107 1.0 2.0 0.00 0.00 0.00 91 1014.1
20260509034554 41 107 0.0 2.0 0.00 0.00 0.00 91 1014.1
20260509034038 41 107 0.0 1.0 0.00 0.00 0.00 91 1014.1
20260509033539 41 0 0.0 0.0 0.00 0.00 0.00 91 1014.2
20260509033105 41 0 0.0 0.0 0.00 0.00 0.00 91 1014.1
20260509032540 41 0 0.0 1.0 0.00 0.00 0.00 91 1014.2
20260509032039 41 0 0.0 1.0 0.00 0.00 0.00 91 1014.2
20260509031552 41 0 0.0 2.0 0.00 0.00 0.00 91 1014.0
20260509031038 42 0 0.0 2.0 0.00 0.00 0.00 91 1014.2
20260509030539 42 107 0.0 2.0 0.00 0.00 0.00 90 1014.1
20260509030052 42 0 0.0 0.0 0.00 0.00 0.00 91 1014.2
20260509025542 42 0 0.0 0.0 0.00 0.00 0.00 90 1014.1
20260509025039 42 0 0.0 0.0 0.00 0.00 0.00 90 1014.0
20260509024557 42 0 0.0 0.0 0.00 0.00 0.00 90 1013.9
20260509024039 43 0 0.0 0.0 0.00 0.00 0.00 90 1013.9
20260509023539 43 0 0.0 0.0 0.00 0.00 0.00 90 1013.7
20260509023048 43 0 0.0 0.0 0.00 0.00 0.00 90 1013.7
20260509022539 43 0 0.0 0.0 0.00 0.00 0.00 90 1013.7
20260509022039 44 0 0.0 2.0 0.00 0.00 0.00 90 1013.6
20260509021551 44 0 0.0 2.0 0.00 0.00 0.00 90 1013.5
20260509021042 44 0 0.0 2.0 0.00 0.00 0.00 90 1013.6
20260509020538 44 0 0.0 0.0 0.00 0.00 0.00 90 1013.3
20260509020050 44 0 0.0 0.0 0.00 0.00 0.00 90 1013.3
20260509015539 44 0 0.0 0.0 0.00 0.00 0.00 90 1013.4
20260509015041 44 0 0.0 0.0 0.00 0.00 0.00 90 1013.3
20260509014549 44 0 0.0 0.0 0.00 0.00 0.00 90 1013.3
20260509014036 44 0 0.0 0.0 0.00 0.00 0.00 90 1013.2
20260509013538 44 0 0.0 0.0 0.00 0.00 0.00 90 1013.2
20260509013050 44 0 0.0 0.0 0.00 0.00 0.00 89 1013.1
20260509012538 44 0 0.0 0.0 0.00 0.00 0.00 89 1013.1
20260509012040 44 0 0.0 0.0 0.00 0.00 0.00 89 1013.0
20260509011604 45 0 0.0 2.0 0.00 0.00 0.00 89 1013.0
20260509011040 45 0 0.0 2.0 0.00 0.00 0.00 89 1012.9
20260509010539 45 107 0.0 2.0 0.00 0.00 0.00 88 1012.7
20260509010057 45 107 0.0 0.0 0.00 0.00 0.00 88 1012.7
20260509005539 46 0 0.0 0.0 0.00 0.00 0.00 88 1012.5
20260509005039 46 0 0.0 0.0 0.00 0.00 0.00 88 1012.4
20260509004558 46 0 0.0 1.0 0.00 0.00 0.00 88 1012.3
20260509004043 46 0 0.0 1.0 0.00 0.00 0.00 88 1012.1
20260509003539 47 0 0.0 1.0 0.00 0.00 0.00 88 1012.0
20260509003106 47 0 0.0 0.0 0.00 0.00 0.00 88 1012.0
20260509002542 47 0 0.0 0.0 0.00 0.00 0.00 88 1011.7
20260509002038 47 0 0.0 0.0 0.00 0.00 0.00 87 1011.6
20260509001552 47 0 0.0 0.0 0.00 0.00 0.00 87 1011.5
20260509001040 47 0 0.0 0.0 0.00 0.00 0.00 87 1011.5
20260509000539 48 0 0.0 0.0 0.00 0.00 0.00 86 1011.5
20260509000051 48 0 0.0 0.0 0.00 0.00 0.00 86 1011.4
20260508235539 48 0 0.0 0.0 0.00 0.00 0.00 86 1011.2
20260508235038 49 0 0.0 0.0 0.00 0.00 0.00 85 1011.2
20260508234546 49 0 0.0 0.0 0.00 0.00 0.00 85 1011.1
20260508234041 49 0 0.0 0.0 0.00 0.00 0.00 85 1011.0
20260508233539 50 0 0.0 0.0 0.00 0.00 0.00 85 1010.9
20260508233048 50 0 0.0 0.0 0.00 0.00 0.00 84 1010.8
20260508232538 50 0 0.0 0.0 0.00 0.00 0.00 84 1010.9
20260508232038 50 0 0.0 0.0 0.00 0.00 0.00 84 1010.8
20260508231555 51 0 0.0 0.0 0.00 0.00 0.00 83 1010.7
20260508231037 51 0 0.0 0.0 0.00 0.00 0.00 83 1010.7
20260508230539 51 0 0.0 0.0 0.00 0.00 0.00 83 1010.6
20260508230047 51 0 0.0 0.0 0.00 0.00 0.00 83 1010.7
20260508225538 52 0 0.0 0.0 0.00 0.00 0.00 83 1010.7
20260508225038 52 0 0.0 0.0 0.00 0.00 0.00 82 1010.6
20260508224607 52 0 0.0 0.0 0.00 0.00 0.00 82 1010.6
20260508224039 52 0 0.0 1.0 0.00 0.00 0.00 81 1010.5
20260508223539 52 0 0.0 1.0 0.00 0.00 0.00 81 1010.6
20260508223048 53 0 0.0 1.0 0.00 0.00 0.00 81 1010.4
20260508222538 53 0 0.0 1.0 0.00 0.00 0.00 80 1010.6
20260508222039 53 0 0.0 3.0 0.00 0.00 0.00 80 1010.4
20260508221607 53 0 0.0 3.0 0.00 0.00 0.00 79 1010.4
20260508221037 54 0 0.0 3.0 0.00 0.00 0.00 79 1010.4
20260508220541 54 0 0.0 2.0 0.00 0.00 0.00 81 1010.4
20260508220052 54 0 0.0 2.0 0.00 0.00 0.00 81 1010.5
20260508215538 54 0 0.0 2.0 0.00 0.00 0.00 81 1010.5
20260508215039 54 345 0.0 2.0 0.00 0.00 0.00 83 1010.5
20260508214550 54 0 0.0 2.0 0.00 0.00 0.00 82 1010.4
20260508214037 53 0 0.0 2.0 0.00 0.00 0.00 84 1010.6
20260508213539 53 0 0.0 1.0 0.00 0.00 0.00 84 1010.6
20260508213048 54 0 0.0 1.0 0.00 0.00 0.00 84 1010.6
20260508212537 53 0 0.0 2.0 0.00 0.00 0.00 84 1010.7
20260508212039 53 0 0.0 2.0 0.00 0.00 0.00 81 1010.7
20260508211553 53 0 0.0 2.0 0.00 0.00 0.00 81 1010.4
20260508211039 53 0 0.0 3.0 0.00 0.00 0.00 81 1010.3
20260508210539 53 35 0.0 3.0 0.00 0.00 0.00 82 1010.3
20260508210045 53 263 0.0 3.0 0.00 0.00 0.00 84 1010.2
20260508205539 53 262 0.0 2.0 0.00 0.00 0.00 86 1010.2
20260508205039 53 0 0.0 2.0 0.00 0.00 0.00 87 1010.1
20260508204552 52 318 0.0 3.0 0.00 0.00 0.00 87 1010.1
20260508204040 52 0 0.0 3.0 0.00 0.00 0.00 87 1010.1
20260508203538 51 31 0.0 3.0 0.00 0.00 0.00 88 1009.9
20260508203054 51 0 0.0 3.0 0.00 0.00 0.00 88 1010.0
20260508202537 51 0 0.0 3.0 0.00 0.00 0.00 88 1009.9
20260508202039 51 0 0.0 2.0 0.00 0.00 0.00 89 1010.0
20260508201548 50 0 0.0 2.0 0.00 0.00 0.00 89 1010.1
20260508201039 50 0 0.0 4.0 0.00 0.00 0.00 88 1010.2
20260508200539 49 249 0.0 4.0 0.00 0.00 0.00 87 1010.1
20260508195539 50 268 1.0 3.0 0.00 0.00 0.00 85 1010.7
20260508195039 51 0 1.0 4.0 0.00 0.00 0.00 84 1011.0
20260508194551 52 345 1.0 5.0 0.00 0.00 0.00 81 1010.9
20260508194038 54 7 2.0 5.0 0.00 0.00 0.00 76 1010.7
20260508193538 56 359 1.0 5.0 0.00 0.00 0.00 66 1010.1
20260508193102 57 358 1.0 4.0 0.00 0.00 0.00 63 1009.9
20260508192539 58 5 1.0 9.0 0.00 0.00 0.00 61 1009.6
20260508192039 58 1 2.0 9.0 0.00 0.00 0.00 57 1009.5
20260508191548 59 289 2.0 9.0 0.00 0.00 0.00 57 1009.4
20260508191038 60 345 1.0 6.0 0.00 0.00 0.00 59 1009.5
20260508190539 61 53 1.0 4.0 0.00 0.00 0.00 58 1009.4
20260508190050 62 342 1.0 4.0 0.00 0.00 0.00 58 1009.4
20260508185538 62 317 1.0 4.0 0.00 0.00 0.00 60 1009.3
20260508185038 62 10 2.0 4.0 0.00 0.00 0.00 58 1009.3
20260508184550 61 17 1.0 6.0 0.00 0.00 0.00 58 1009.3
20260508184038 61 2 2.0 6.0 0.00 0.00 0.00 57 1009.3
20260508183539 61 344 2.0 7.0 0.00 0.00 0.00 56 1009.4
20260508183103 62 330 1.0 7.0 0.00 0.00 0.00 59 1009.3
20260508182539 62 347 1.0 4.0 0.00 0.00 0.00 55 1009.4
20260508182043 62 3 1.0 4.0 0.00 0.00 0.00 56 1009.4
20260508181611 62 152 1.0 4.0 0.00 0.00 0.00 54 1009.4
20260508181039 62 339 2.0 6.0 0.00 0.00 0.00 53 1009.3
20260508180538 62 282 2.0 6.0 0.00 0.00 0.00 54 1009.4
20260508180053 62 26 2.0 4.0 0.00 0.00 0.00 51 1009.5
20260508175540 62 31 2.0 4.0 0.00 0.00 0.00 53 1009.5
20260508175039 62 9 2.0 4.0 0.00 0.00 0.00 50 1009.5
20260508174551 63 334 1.0 4.0 0.00 0.00 0.00 52 1009.5
20260508174039 63 11 1.0 4.0 0.00 0.00 0.00 52 1009.8
20260508173538 63 306 1.0 6.0 0.00 0.00 0.00 58 1009.6
20260508173050 63 328 1.0 6.0 0.00 0.00 0.00 57 1009.8
20260508172538 63 330 1.0 4.0 0.00 0.00 0.00 57 1009.8
20260508172038 63 0 1.0 4.0 0.00 0.00 0.00 57 1009.8
20260508171551 63 7 0.0 5.0 0.00 0.00 0.00 60 1009.8
20260508171042 64 28 2.0 5.0 0.00 0.00 0.00 55 1009.9
20260508170539 64 35 0.0 4.0 0.00 0.00 0.00 63 1009.8
20260508170051 64 230 1.0 4.0 0.00 0.00 0.00 65 1009.9
20260508165538 64 301 1.0 3.0 0.00 0.00 0.00 59 1009.9
20260508165039 64 0 1.0 3.0 0.00 0.00 0.00 58 1009.9
20260508164553 64 253 1.0 3.0 0.00 0.00 0.00 63 1009.9
20260508164039 64 233 0.0 2.0 0.00 0.00 0.00 64 1009.9
20260508163538 63 233 0.0 3.0 0.00 0.00 0.00 62 1009.9
20260508163054 63 230 0.0 3.0 0.00 0.00 0.00 63 1010.0
20260508162538 63 278 0.0 3.0 0.00 0.00 0.00 60 1010.1
20260508162043 63 278 1.0 3.0 0.00 0.00 0.00 61 1010.1
20260508161553 63 278 0.0 3.0 0.00 0.00 0.00 56 1010.0
20260508161039 63 0 1.0 3.0 0.00 0.00 0.00 56 1010.0
20260508160539 63 5 1.0 3.0 0.00 0.00 0.00 56 1010.3
20260508160059 63 0 0.0 4.0 0.00 0.00 0.00 57 1010.3
20260508155538 62 287 1.0 4.0 0.00 0.00 0.00 51 1010.3
20260508155039 62 15 1.0 4.0 0.00 0.00 0.00 55 1010.1
20260508154556 61 345 0.0 4.0 0.00 0.00 0.00 51 1010.3
20260508154038 61 0 1.0 4.0 0.00 0.00 0.00 43 1010.2
20260508153536 62 1 1.0 4.0 0.00 0.00 0.00 46 1010.3
20260508153051 62 327 1.0 4.0 0.00 0.00 0.00 46 1010.2
20260508152541 63 354 1.0 3.0 0.00 0.00 0.00 51 1010.3
20260508152038 62 277 1.0 5.0 0.00 0.00 0.00 51 1010.2
20260508151551 61 10 1.0 5.0 0.00 0.00 0.00 48 1010.3
20260508151040 61 28 2.0 5.0 0.00 0.00 0.00 45 1010.6
20260508150539 61 8 1.0 3.0 0.00 0.00 0.00 47 1010.4
20260508150122 61 18 0.0 5.0 0.00 0.00 0.00 48 1010.4
20260508145542 61 322 1.0 5.0 0.00 0.00 0.00 52 1010.3
20260508145037 61 0 1.0 5.0 0.00 0.00 0.00 46 1010.4